FW7612 Dennis MA US current weather conditions

sailwx.info

Wind from 052 at 13 knots gusting 16

Air temperature 10.0° C
Dewpoint 4.8° C

Last reported at 2020-Oct-25 20:03 UTC.
Time now 2020-Oct-26 03:57 UTC

Location: N 41°45' W 070°13'.
View on Google Maps.

See reports from other nearby stations

  
Tides and Currents Weather Stations Pressure Air Temp Water Temp Dewpoint Dewpoint Depression Visibility Wind Speed Wind Dir Waves Ship Positions
date/time (UTC)wind fromknots sea level pressurealtimeterstation pressurevisibilityair tempwater tempwave heightnotes
2020-Oct-25 20:03 052 13 gusting 16 10.0
2020-Oct-25 18:02
2020-Oct-25 17:04 040 12 11.1
2020-Oct-25 16:02
2020-Oct-25 15:02 037 13 10.6
2020-Oct-25 14:02
2020-Oct-25 13:02
2020-Oct-25 12:07
2020-Oct-25 12:02
2020-Oct-25 11:02 025 14 gusting 21 11.1
2020-Oct-25 10:07
2020-Oct-25 10:02
2020-Oct-25 09:07 11.1
2020-Oct-25 09:02 355 18 11.1
2020-Oct-25 08:07 010 18 11.1
2020-Oct-25 08:02 009 19 11.1
2020-Oct-25 07:57 001 19 11.1
2020-Oct-25 07:52 004 21 11.1
2020-Oct-25 07:47 005 19 11.1
2020-Oct-25 07:42 012 18 11.7
2020-Oct-25 07:37 016 19 11.7
2020-Oct-25 07:32 007 18 11.7
2020-Oct-25 07:27 011 19 11.7
2020-Oct-25 07:22 11.7
2020-Oct-25 07:17 010 18 11.7
2020-Oct-25 07:12 005 19 11.7
2020-Oct-25 07:07 013 18 11.7
2020-Oct-25 07:02 012 18 11.7
2020-Oct-25 06:57 006 18 11.7
2020-Oct-25 06:52 010 19 11.7
2020-Oct-25 06:47 010 19 11.7
2020-Oct-25 06:42 009 18 11.7
2020-Oct-25 06:37 348 16 11.1
2020-Oct-25 06:32 345 18 11.1
2020-Oct-25 06:27 349 19 11.1
2020-Oct-25 06:22 351 19 11.1
2020-Oct-25 06:17 351 18 11.1
2020-Oct-25 06:12 330 19 11.1
2020-Oct-25 06:07 354 19 11.1
2020-Oct-25 06:02 345 20 11.1
2020-Oct-25 05:57 342 18 11.1
2020-Oct-25 05:52 345 19 11.1
2020-Oct-25 05:47 348 19 11.1
2020-Oct-25 05:42 345 18 11.1
2020-Oct-25 05:37 325 19 11.1
2020-Oct-25 05:32 328 21 11.1
2020-Oct-25 05:27 325 19 11.1
2020-Oct-25 05:21 333 19 11.1
2020-Oct-25 05:16 321 20 gusting 26 11.1
2020-Oct-25 05:11 325 21 gusting 26 11.1
2020-Oct-25 05:06 348 20 gusting 26 11.1
2020-Oct-25 05:01 342 20 gusting 25 11.1
2020-Oct-25 04:56 323 19 gusting 26 11.1
2020-Oct-25 04:51 323 22 gusting 26 11.1
2020-Oct-25 04:46 342 22 gusting 29 11.1
2020-Oct-25 04:41 326 22 gusting 28 11.1
2020-Oct-25 04:36 327 20 gusting 27 11.1
2020-Oct-25 04:31 320 23 gusting 28 11.1
2020-Oct-25 04:26 329 22 gusting 29 11.7
2020-Oct-25 04:21 321 22 gusting 28 11.7
2020-Oct-25 04:16 329 22 gusting 28 11.7
2020-Oct-25 04:11 323 23 gusting 28 11.7
2020-Oct-25 04:06 317 23 gusting 27 12.2
2020-Oct-25 04:01 329 20 gusting 26 12.2
2020-Oct-25 03:56 326 23 gusting 29 12.2
2020-Oct-25 03:51 335 24 gusting 28 12.2
2020-Oct-25 03:46 341 25 gusting 29 12.2
2020-Oct-25 03:41 338 23 gusting 28 12.2
2020-Oct-25 03:36 349 24 gusting 30 12.8
2020-Oct-25 03:31 328 25 gusting 31 12.8
2020-Oct-25 03:26 327 22 gusting 26 12.8
2020-Oct-25 03:21 324 21 gusting 28 12.8
2020-Oct-25 03:16 323 23 gusting 27 12.8
2020-Oct-25 03:11 332 21 gusting 27 13.3
2020-Oct-25 03:06 339 21 gusting 26 13.3
2020-Oct-25 03:01 333 22 gusting 26 13.3
2020-Oct-25 02:56 333 22 gusting 26 13.3
2020-Oct-25 02:51 337 20 gusting 25 13.9
2020-Oct-25 02:46 330 18 gusting 24 13.9
2020-Oct-25 02:41 325 18 gusting 23 13.9
2020-Oct-25 02:36 319 19 gusting 22 13.9
2020-Oct-25 02:31 315 18 gusting 22 13.9
2020-Oct-25 02:26 325 18 gusting 25 13.9
2020-Oct-25 02:21 310 20 gusting 26 13.9
2020-Oct-25 02:16 315 21 gusting 26 14.4
2020-Oct-25 02:11 318 20 gusting 26 14.4
2020-Oct-25 02:06 313 20 gusting 24 14.4
2020-Oct-25 02:01 311 16 gusting 25 14.4
2020-Oct-25 01:56 311 21 gusting 26 14.4
2020-Oct-25 01:50 315 20 gusting 26 14.4
2020-Oct-25 01:46 313 21 gusting 27 15.0
2020-Oct-25 01:41 315 20 gusting 26 15.0
2020-Oct-25 01:35 317 19 gusting 27 15.0
2020-Oct-25 01:30 319 21 gusting 28 15.0
2020-Oct-25 01:25 313 21 gusting 26 15.0
2020-Oct-25 01:20 322 19 gusting 26 15.6
2020-Oct-25 01:15 323 21 gusting 25 15.6
2020-Oct-25 01:11 331 20 gusting 26 15.6
2020-Oct-25 01:06 330 19 gusting 27 15.6
2020-Oct-25 01:00 336 19 gusting 23 15.6
2020-Oct-25 00:55 334 16 gusting 21 15.6
2020-Oct-25 00:50 347 16 gusting 19 15.6
2020-Oct-25 00:45 349 13 gusting 18 15.6
2020-Oct-25 00:41 357 14 gusting 18 15.6
2020-Oct-25 00:36 356 14 gusting 22 16.1
2020-Oct-25 00:30 353 18 gusting 22 16.1
2020-Oct-25 00:25 358 18 gusting 33 16.1
2020-Oct-25 00:20 290 19 gusting 27 16.7
2020-Oct-25 00:16 238 3 gusting 5 17.2
2020-Oct-25 00:10 219 17.2
2020-Oct-24 23:58 209 0 gusting 4 17.2
2020-Oct-24 23:54 186 17.2
2020-Oct-24 23:48 183 17.2
2020-Oct-24 23:43 190 17.2
2020-Oct-24 23:38 202 0 gusting 4 17.2
2020-Oct-24 23:33 207 0 gusting 5 17.2
2020-Oct-24 23:28 203 17.2
2020-Oct-24 23:24 206 0 gusting 6 17.2
2020-Oct-24 23:18 218 1 gusting 7 17.2
2020-Oct-24 23:13 202 0 gusting 6 17.2
2020-Oct-24 23:08 200 17.2
2020-Oct-24 23:03 206 2 gusting 6 17.2
2020-Oct-24 22:58 196 17.2
2020-Oct-24 22:53 199 2 gusting 8 17.2
2020-Oct-24 22:48 203 5 gusting 9 17.2
2020-Oct-24 22:43 206 6 gusting 9 17.2
2020-Oct-24 22:38 210 3 gusting 10 17.2
2020-Oct-24 22:33 216 3 gusting 9 17.2
2020-Oct-24 22:28 226 7 gusting 11 17.2
2020-Oct-24 22:23 222 4 gusting 9 17.2
2020-Oct-24 22:18 219 4 gusting 8 17.2
2020-Oct-24 22:13 219 4 gusting 11 17.2
2020-Oct-24 22:08 224 6 gusting 10 17.8
2020-Oct-24 22:03 220 5 gusting 9 17.8
2020-Oct-24 21:58 229 6 gusting 9 17.8
2020-Oct-24 21:53 224 6 gusting 12 17.8
2020-Oct-24 21:48 213 4 gusting 12 17.8
2020-Oct-24 21:43 223 6 gusting 11 17.8
2020-Oct-24 21:38 223 5 gusting 9 17.8
2020-Oct-24 21:33 214 5 gusting 8 17.8
2020-Oct-24 21:28 220 3 gusting 9 18.3
2020-Oct-24 21:23 212 3 gusting 7 18.3
2020-Oct-24 21:18 219 2 gusting 8 18.3
2020-Oct-24 21:13 221 3 gusting 7 18.3
2020-Oct-24 21:08 203 2 gusting 6 18.3
2020-Oct-24 21:03 226 6 gusting 9 18.3
2020-Oct-24 20:58 207 2 gusting 7 18.3
2020-Oct-24 20:53 214 3 gusting 8 18.3
2020-Oct-24 20:48 211 2 gusting 11 18.3
2020-Oct-24 20:43 224 6 gusting 10 18.3
2020-Oct-24 20:38 231 5 gusting 9 18.3
2020-Oct-24 20:33 228 5 gusting 8 18.3
2020-Oct-24 20:28 236 5 gusting 8 18.9
2020-Oct-24 20:23 204 3 gusting 7 18.9
2020-Oct-24 20:18 210 5 gusting 10 18.9
2020-Oct-24 20:13 212 4 gusting 10 18.9
2020-Oct-24 20:08 228 5 gusting 8 18.9
2020-Oct-24 20:03 226 5 gusting 11 19.4
2020-Oct-24 19:58 235 6 gusting 9 19.4
2020-Oct-24 19:53 223 5 gusting 10 18.9
2020-Oct-24 19:48 219 3 gusting 9 18.9
2020-Oct-24 19:43 210 6 gusting 9 18.9
2020-Oct-24 19:38 221 3 gusting 11 18.9
2020-Oct-24 19:33 218 5 gusting 8 19.4
2020-Oct-24 19:28 230 6 gusting 11 19.4
2020-Oct-24 19:23 222 8 gusting 12 19.4
2020-Oct-24 19:18 226 5 gusting 13 19.4
2020-Oct-24 19:13 233 7 gusting 13 18.9
2020-Oct-24 19:08 221 5 gusting 13 18.3
2020-Oct-24 19:03 220 6 gusting 13 18.3
2020-Oct-24 18:58 226 7 gusting 11 18.3
2020-Oct-24 18:53 227 6 gusting 12 18.3
2020-Oct-24 18:48 227 6 gusting 13 18.3
2020-Oct-24 18:43 236 7 gusting 13 18.3
2020-Oct-24 18:38 231 6 gusting 10 18.3
2020-Oct-24 18:33 234 8 gusting 12 18.3
2020-Oct-24 18:28 238 6 gusting 12 18.3
2020-Oct-24 18:23 238 7 gusting 12 18.3
2020-Oct-24 18:18 235 8 gusting 13 18.3
2020-Oct-24 18:13 229 7 gusting 13 18.3
2020-Oct-24 18:08 233 8 gusting 13 18.9
2020-Oct-24 18:03 219 3 gusting 9 18.9
2020-Oct-24 17:58 228 6 gusting 11 18.9
2020-Oct-24 17:53 195 5 gusting 10 18.9
2020-Oct-24 17:48 190 2 gusting 9 18.9
2020-Oct-24 17:43 188 6 gusting 12 18.9
2020-Oct-24 17:38 169 3 gusting 10 18.9
2020-Oct-24 17:33 197 5 gusting 12 18.9
2020-Oct-24 17:28 174 4 gusting 11 18.9
2020-Oct-24 17:23 192 6 gusting 12 18.9
2020-Oct-24 17:18 202 7 gusting 12 18.9
2020-Oct-24 17:13 188 1 gusting 9 19.4
2020-Oct-24 17:08 193 1 gusting 9 19.4
2020-Oct-24 17:03 168 4 gusting 11 20.0
2020-Oct-24 16:58 200 6 gusting 13 20.0
2020-Oct-24 16:53 168 6 gusting 12 20.6
2020-Oct-24 16:48 202 6 gusting 13 20.6
2020-Oct-24 16:43 196 8 gusting 13 20.6
2020-Oct-24 16:38 174 4 gusting 10 20.6
2020-Oct-24 16:33 168 1 gusting 12 20.6
2020-Oct-24 16:28 164 5 gusting 12 21.1
2020-Oct-24 16:23 171 4 gusting 10 20.6
2020-Oct-24 16:18 177 1 gusting 11 20.0
2020-Oct-24 16:13 203 4 gusting 10 20.0
2020-Oct-24 16:08 199 4 gusting 10 20.0
2020-Oct-24 16:03 189 3 gusting 8 20.0
2020-Oct-24 15:58 178 4 gusting 7 20.6
2020-Oct-24 15:53 195 6 gusting 11 20.0
2020-Oct-24 15:48 218 1 gusting 10 19.4
2020-Oct-24 15:43 236 6 gusting 11 19.4
2020-Oct-24 15:38 243 3 gusting 11 19.4
2020-Oct-24 15:31 224 5 gusting 9 18.9
2020-Oct-24 15:26 217 1 gusting 6 19.4
2020-Oct-24 15:21 208 1 gusting 10 19.4
2020-Oct-24 15:16 202 0 gusting 7 19.4
2020-Oct-24 15:12 205 1 gusting 10 19.4
2020-Oct-24 15:06 156 19.4
2020-Oct-24 15:01 206 1 gusting 8 19.4
2020-Oct-24 14:56 222 3 gusting 7 18.9
2020-Oct-24 14:51 229 1 gusting 6 18.9
2020-Oct-24 14:46 209 0 gusting 6 19.4
2020-Oct-24 14:41 257 0 gusting 6 18.9
2020-Oct-24 14:36 167 1 gusting 6 19.4
2020-Oct-24 14:31 196 0 gusting 6 18.9
2020-Oct-24 14:26 247 0 gusting 6 18.3
2020-Oct-24 14:21 199 1 gusting 5 18.9
2020-Oct-24 14:16 207 3 gusting 6 18.3
2020-Oct-24 14:11 218 18.9
2020-Oct-24 14:06 217 18.9
2020-Oct-24 14:01 123 0 gusting 6 18.9
2020-Oct-24 13:56 160 18.3
2020-Oct-24 13:51 138 18.3
2020-Oct-24 13:46 143 0 gusting 6 18.3
2020-Oct-24 13:41 139 1 gusting 7 17.8
2020-Oct-24 13:36 121 4 gusting 6 17.8
2020-Oct-24 13:31 148 17.8
2020-Oct-24 13:26 164 17.8
2020-Oct-24 13:21 155 0 gusting 6 17.8
2020-Oct-24 13:16 139 17.8
2020-Oct-24 13:11 170 0 gusting 5 17.2
2020-Oct-24 13:06 118 3 gusting 6 16.7
2020-Oct-24 13:01 178 16.1
2020-Oct-24 12:56 167 15.0
2020-Oct-24 12:51 234 3 gusting 6 15.0
2020-Oct-24 12:46 233 3 gusting 7 15.0
2020-Oct-24 12:41 223 2 gusting 9 15.0
2020-Oct-24 12:36 256 6 gusting 9 15.0
2020-Oct-24 12:31 248 6 gusting 9 15.0
2020-Oct-24 12:26 218 15.0
2020-Oct-24 12:21 215 1 gusting 6 15.0
2020-Oct-24 12:16 239 4 gusting 8 15.0
2020-Oct-24 12:11 240 4 gusting 10 15.0
2020-Oct-24 12:06 246 4 gusting 9 15.0
2020-Oct-24 12:01 245 5 gusting 11 15.0
2020-Oct-24 11:56 256 6 gusting 9 15.0
2020-Oct-24 11:51 256 7 gusting 10 15.0
2020-Oct-24 11:46 266 8 gusting 10 15.0
2020-Oct-24 11:41 255 7 gusting 11 15.0
2020-Oct-24 11:36 256 6 gusting 9 15.0
2020-Oct-24 11:31 255 6 gusting 9 15.0
2020-Oct-24 11:26 239 4 gusting 6 14.4
2020-Oct-24 11:21 204 14.4
2020-Oct-24 11:16 214 0 gusting 6 14.4
2020-Oct-24 11:11 247 3 gusting 6 14.4
2020-Oct-24 11:06 209 14.4
2020-Oct-24 11:01 185 0 gusting 4 14.4
2020-Oct-24 10:56 206 14.4
2020-Oct-24 10:51 209 15.0
2020-Oct-24 10:46 218 1 gusting 5 15.0
2020-Oct-24 10:41 244 3 gusting 4 15.0
2020-Oct-24 10:36 192 15.0
2020-Oct-24 10:31 262 2 gusting 5 15.0
2020-Oct-24 10:26 246 4 gusting 6 15.0
2020-Oct-24 10:21 234 1 gusting 7 15.0
2020-Oct-24 10:16 246 4 gusting 6 15.0
2020-Oct-24 10:11 265 5 gusting 6 15.0
2020-Oct-24 10:06 239 4 gusting 6 15.0
2020-Oct-24 10:01 255 4 gusting 6 15.0
2020-Oct-24 09:56 280 4 gusting 5 15.0
2020-Oct-24 09:51 279 3 gusting 4 15.0
2020-Oct-24 09:46 275 2 gusting 4 14.4
2020-Oct-24 09:41 268 2 gusting 4 14.4
2020-Oct-24 09:36 259 1 gusting 4 14.4
2020-Oct-24 09:31 249 14.4
2020-Oct-24 09:26 220 14.4
2020-Oct-24 09:21 201 14.4
2020-Oct-24 09:16 185 14.4
2020-Oct-24 09:11 198 14.4
2020-Oct-24 09:06 206 14.4
2020-Oct-24 09:01 128 14.4
2020-Oct-24 08:56 160 14.4
2020-Oct-24 08:51 127 14.4
2020-Oct-24 08:46 118 14.4
2020-Oct-24 08:41 126 14.4
2020-Oct-24 08:36 192 14.4
2020-Oct-24 08:31 246 14.4
2020-Oct-24 08:26 243 14.4
2020-Oct-24 08:21 208 14.4
2020-Oct-24 08:16 139 14.4
2020-Oct-24 08:11 226 14.4
2020-Oct-24 08:07 145 14.4
2020-Oct-24 08:01 140 14.4
2020-Oct-24 07:56 112 14.4
2020-Oct-24 07:51 118 14.4
2020-Oct-24 07:46 176 14.4
2020-Oct-24 07:41 148 14.4
2020-Oct-24 07:36 029 14.4
2020-Oct-24 07:31 119 14.4
2020-Oct-24 07:26 097 14.4
2020-Oct-24 07:21 119 14.4
2020-Oct-24 07:16 119 14.4
2020-Oct-24 07:11 151 14.4
2020-Oct-24 07:06 165 14.4
2020-Oct-24 07:01 155 14.4
2020-Oct-24 06:56 113 14.4
2020-Oct-24 06:51 107 14.4
2020-Oct-24 06:46 108 14.4
2020-Oct-24 06:41 115 14.4
2020-Oct-24 06:36 120 14.4
2020-Oct-24 06:31 116 14.4
2020-Oct-24 06:26 113 14.4
2020-Oct-24 06:21 104 14.4
2020-Oct-24 06:16 115 14.4
2020-Oct-24 06:11 105 14.4
2020-Oct-24 06:06 121 14.4
2020-Oct-24 06:01 113 14.4
2020-Oct-24 05:56 103 14.4
2020-Oct-24 05:51 110 14.4
2020-Oct-24 05:46 097 15.0
2020-Oct-24 05:41 277 15.0
2020-Oct-24 05:36 225 14.4
2020-Oct-24 05:31 255 14.4
2020-Oct-24 05:26 210 14.4
2020-Oct-24 05:21 189 14.4
2020-Oct-24 05:16 148 14.4
2020-Oct-24 05:11 276 14.4
2020-Oct-24 05:06 276 14.4
2020-Oct-24 05:01 276 14.4
2020-Oct-24 04:56 276 14.4
2020-Oct-24 04:51 304 14.4
2020-Oct-24 04:46 304 14.4
2020-Oct-24 04:41 323 14.4
2020-Oct-24 04:36 183 14.4
2020-Oct-24 04:31 183 14.4
2020-Oct-24 04:26 104 14.4
2020-Oct-24 04:21 103 14.4
2020-Oct-24 04:16 113 14.4
2020-Oct-24 04:11 109 14.4
2020-Oct-24 04:06 112 14.4
2020-Oct-24 04:01 105 14.4
2020-Oct-24 03:56 125 14.4
2020-Oct-24 03:51 239 14.4
2020-Oct-24 03:46 142 14.4
2020-Oct-24 03:41 115 14.4
2020-Oct-24 03:36 106 14.4
2020-Oct-24 03:31 075 14.4
2020-Oct-24 03:26 103 14.4
2020-Oct-24 03:21 098 14.4
2020-Oct-24 03:16 115 14.4
2020-Oct-24 03:11 089 14.4
2020-Oct-24 03:06 115 14.4
2020-Oct-24 03:01 083 14.4